Total_Precipitation_Accumulation
0.58 0.71 0.74 0.58 0.52 0.48 0.42 0.40 0.32 0.21 0.19 0.19 0.21 0.19 0.11 0.07 0.08 0.08 0.07 0.08 0.08 0.07 0.08 0.13 0.19 0.27 0.31 0.32 0.38 0.50 0.61 0.75 0.80 0.86 0.85 0.83 0.89 0.89 0.83 0.76 0.79 0.88 0.82 0.72
0.71 0.58 0.39 0.33 0.34 0.43 0.46 0.46 0.35 0.23 0.22 0.26 0.24 0.19 0.11 0.07 0.07 0.08 0.08 0.07 0.07 0.08 0.09 0.14 0.19 0.25 0.29 0.33 0.37 0.48 0.62 0.73 0.77 0.78 0.84 0.82 0.85 0.86 0.87 0.83 0.83 0.90 0.95 0.87
0.59 0.37 0.27 0.38 0.42 0.51 0.51 0.43 0.32 0.27 0.27 0.31 0.34 0.28 0.14 0.08 0.08 0.10 0.11 0.11 0.10 0.10 0.11 0.15 0.19 0.22 0.25 0.30 0.34 0.40 0.56 0.74 0.80 0.78 0.88 0.95 1.02 1.06 1.04 0.97 0.89 0.90 0.93 0.91
0.47 0.28 0.30 0.43 0.46 0.48 0.49 0.28 0.25 0.29 0.40 0.43 0.38 0.44 0.21 0.12 0.10 0.11 0.13 0.14 0.14 0.12 0.13 0.18 0.21 0.25 0.27 0.32 0.36 0.38 0.47 0.64 0.83 0.86 0.88 0.94 0.99 1.01 1.05 0.98 0.90 0.88 0.92 0.95
0.51 0.29 0.31 0.43 0.36 0.34 0.37 0.26 0.28 0.35 0.45 0.48 0.37 0.47 0.28 0.16 0.14 0.11 0.10 0.11 0.12 0.12 0.15 0.20 0.24 0.29 0.32 0.39 0.46 0.45 0.50 0.58 0.78 0.83 0.83 0.88 0.92 0.94 1.02 1.04 0.97 0.94 0.96 1.00
0.42 0.30 0.31 0.30 0.25 0.27 0.33 0.39 0.45 0.50 0.68 0.72 0.30 0.33 0.32 0.26 0.23 0.16 0.13 0.14 0.13 0.14 0.17 0.21 0.27 0.34 0.39 0.44 0.55 0.55 0.58 0.58 0.69 0.86 0.84 0.81 0.85 0.88 0.94 0.99 1.05 1.04 1.02 1.02
0.53 0.39 0.35 0.30 0.36 0.43 0.54 0.79 1.09 1.09 1.02 0.58 0.14 0.20 0.30 0.25 0.23 0.18 0.15 0.18 0.17 0.17 0.19 0.23 0.30 0.39 0.40 0.43 0.57 0.59 0.60 0.62 0.63 0.78 0.85 0.79 0.79 0.81 0.82 0.90 0.93 0.99 1.05 1.04
0.61 0.50 0.38 0.35 0.43 0.53 0.52 0.67 0.86 0.78 0.47 0.19 0.10 0.16 0.21 0.19 0.15 0.13 0.14 0.16 0.18 0.17 0.18 0.22 0.27 0.34 0.39 0.39 0.50 0.60 0.63 0.65 0.64 0.72 0.85 0.87 0.85 0.86 0.81 0.85 0.91 0.92 0.94 0.95
0.62 0.39 0.24 0.26 0.25 0.30 0.40 0.45 0.41 0.55 0.36 0.20 0.14 0.11 0.14 0.13 0.10 0.11 0.12 0.14 0.18 0.20 0.21 0.23 0.26 0.29 0.32 0.38 0.45 0.52 0.64 0.70 0.70 0.70 0.83 0.99 1.04 0.96 0.86 0.82 0.87 0.88 0.85 0.86
0.72 0.50 0.23 0.26 0.37 0.37 0.37 0.42 0.55 0.76 0.59 0.30 0.15 0.14 0.23 0.19 0.16 0.14 0.13 0.14 0.14 0.19 0.25 0.28 0.28 0.31 0.32 0.34 0.41 0.46 0.58 0.69 0.74 0.71 0.78 0.93 1.15 1.17 1.02 0.96 0.86 0.83 0.82 0.82
0.64 0.68 0.40 0.37 0.52 0.51 0.43 0.53 0.70 0.75 0.51 0.37 0.22 0.18 0.24 0.22 0.19 0.15 0.12 0.11 0.12 0.16 0.20 0.24 0.27 0.34 0.37 0.36 0.40 0.45 0.51 0.61 0.69 0.67 0.72 0.82 0.99 1.21 1.23 1.12 1.00 0.86 0.82 0.79
0.65 0.78 0.58 0.35 0.33 0.35 0.41 0.47 0.57 0.73 0.53 0.29 0.24 0.16 0.11 0.13 0.15 0.13 0.11 0.09 0.11 0.15 0.17 0.20 0.24 0.32 0.37 0.38 0.40 0.43 0.48 0.56 0.63 0.64 0.68 0.77 0.85 1.02 1.24 1.18 1.05 0.93 0.86 0.82
1.01 1.21 0.94 0.65 0.56 0.50 0.57 0.50 0.48 0.51 0.50 0.33 0.26 0.13 0.07 0.08 0.11 0.09 0.09 0.09 0.11 0.13 0.17 0.19 0.25 0.30 0.34 0.40 0.43 0.42 0.45 0.52 0.57 0.64 0.68 0.70 0.78 0.87 0.98 1.13 1.08 0.99 0.92 0.87
1.16 1.27 0.92 0.73 0.59 0.54 0.52 0.38 0.38 0.55 0.64 0.33 0.15 0.10 0.07 0.09 0.13 0.13 0.12 0.12 0.12 0.13 0.17 0.22 0.25 0.27 0.32 0.39 0.46 0.45 0.48 0.51 0.50 0.57 0.65 0.64 0.65 0.73 0.78 0.90 1.08 1.09 1.00 0.91
1.02 1.02 0.51 0.30 0.22 0.24 0.26 0.22 0.23 0.36 0.37 0.28 0.13 0.11 0.12 0.12 0.14 0.16 0.17 0.18 0.16 0.14 0.16 0.23 0.27 0.27 0.33 0.41 0.50 0.53 0.49 0.45 0.42 0.47 0.55 0.61 0.65 0.72 0.75 0.76 0.87 1.05 1.02 0.88
0.97 0.91 0.45 0.25 0.17 0.18 0.19 0.15 0.16 0.18 0.17 0.15 0.10 0.10 0.13 0.13 0.11 0.14 0.17 0.18 0.20 0.19 0.19 0.23 0.28 0.28 0.34 0.41 0.51 0.60 0.53 0.47 0.40 0.43 0.50 0.56 0.65 0.78 0.80 0.75 0.79 0.89 0.97 0.92
0.93 0.91 0.73 0.38 0.18 0.33 0.35 0.21 0.19 0.18 0.15 0.18 0.20 0.16 0.12 0.13 0.13 0.16 0.19 0.21 0.22 0.23 0.25 0.26 0.29 0.32 0.38 0.41 0.49 0.57 0.55 0.51 0.43 0.44 0.49 0.54 0.58 0.72 0.79 0.78 0.83 0.84 0.87 0.94
0.68 0.83 1.02 0.64 0.46 0.69 0.31 0.15 0.15 0.16 0.17 0.19 0.18 0.14 0.12 0.13 0.13 0.15 0.20 0.24 0.26 0.26 0.26 0.27 0.31 0.37 0.37 0.40 0.42 0.48 0.51 0.49 0.46 0.47 0.53 0.57 0.55 0.60 0.72 0.81 0.82 0.81 0.81 0.83
0.37 0.74 1.18 1.00 0.72 0.40 0.17 0.15 0.17 0.21 0.23 0.17 0.13 0.11 0.10 0.10 0.10 0.11 0.12 0.18 0.25 0.26 0.25 0.27 0.31 0.36 0.37 0.36 0.36 0.42 0.48 0.46 0.48 0.53 0.56 0.57 0.52 0.53 0.62 0.71 0.78 0.79 0.79 0.74
0.37 0.71 1.28 1.14 0.85 0.39 0.23 0.16 0.13 0.17 0.33 0.17 0.13 0.14 0.12 0.13 0.19 0.15 0.11 0.16 0.24 0.22 0.22 0.26 0.29 0.30 0.33 0.36 0.35 0.40 0.45 0.41 0.45 0.49 0.55 0.52 0.47 0.44 0.45 0.55 0.70 0.77 0.77 0.73
0.67 1.05 1.27 0.97 0.75 0.31 0.21 0.17 0.16 0.31 0.38 0.18 0.15 0.15 0.14 0.16 0.22 0.17 0.15 0.19 0.22 0.17 0.19 0.22 0.25 0.27 0.33 0.36 0.33 0.37 0.42 0.41 0.43 0.47 0.52 0.47 0.44 0.44 0.44 0.50 0.63 0.71 0.79 0.81
0.56 0.78 0.78 0.70 0.79 0.41 0.21 0.23 0.35 0.39 0.22 0.15 0.13 0.12 0.12 0.11 0.10 0.11 0.14 0.19 0.20 0.16 0.16 0.16 0.19 0.23 0.28 0.31 0.31 0.37 0.43 0.43 0.46 0.47 0.44 0.43 0.45 0.47 0.48 0.51 0.59 0.69 0.78 0.85
0.44 0.55 0.53 0.49 0.41 0.27 0.22 0.30 0.31 0.24 0.17 0.12 0.11 0.11 0.10 0.10 0.10 0.12 0.15 0.17 0.20 0.18 0.17 0.17 0.19 0.21 0.26 0.29 0.30 0.37 0.43 0.40 0.43 0.43 0.41 0.40 0.44 0.46 0.48 0.53 0.61 0.69 0.77 0.80
0.29 0.31 0.38 0.33 0.20 0.16 0.17 0.20 0.21 0.16 0.13 0.11 0.11 0.11 0.10 0.10 0.11 0.13 0.16 0.17 0.18 0.19 0.18 0.18 0.20 0.22 0.27 0.29 0.29 0.35 0.40 0.37 0.36 0.36 0.40 0.38 0.42 0.47 0.51 0.56 0.61 0.66 0.75 0.81
0.25 0.28 0.34 0.31 0.17 0.14 0.14 0.15 0.16 0.14 0.12 0.11 0.12 0.11 0.11 0.11 0.13 0.14 0.17 0.18 0.19 0.22 0.21 0.20 0.21 0.22 0.28 0.31 0.33 0.36 0.35 0.33 0.33 0.33 0.39 0.44 0.46 0.51 0.56 0.59 0.61 0.64 0.66 0.79
0.17 0.22 0.29 0.28 0.19 0.19 0.18 0.16 0.15 0.14 0.14 0.14 0.14 0.13 0.12 0.13 0.17 0.16 0.16 0.18 0.20 0.23 0.24 0.22 0.23 0.24 0.29 0.33 0.39 0.38 0.32 0.30 0.32 0.36 0.40 0.47 0.52 0.53 0.54 0.54 0.57 0.64 0.66 0.70